Weather History for Newport News, VA

Change the Weather History Date:

Tuesday, January 28, 2014

  Actual Average Record
Temperature  
Mean Temperature 24 °F -  
Max Temperature 30 °F 50 °F 78 °F (1999)
Min Temperature 19 °F 30 °F 3 °F (2000)
Degree Days  
Heating Degree Days 40    
Moisture  
Dew Point 6 °F    
Average Humidity 54    
Maximum Humidity 74    
Minimum Humidity 25    
Precipitation  
Precipitation 0.19 in - - ()
Sea Level Pressure  
Sea Level Pressure 30.30 in    
Wind  
Wind Speed 10 mph (North)    
Max Wind Speed 13 mph    
Max Gust Speed 20 mph    
Visibility 5 miles    
Events Snow    
Averages and records for this station are not official NWS values.
T = Trace of Precipitation, MM = Missing Value Source: NWS Daily Summary

Daily Weather History Graph

Daily Weather History Graph

Search for Another Location

Airport:

Trip Planner

Search our weather history database for the weather conditions in past years. The results will help you decide how hot, cold, wet, or windy it might be!

Date:

Astronomy

Jan. 28, 2014 Rise Set
Actual Time 7:11 AM EST 5:26 PM EST
Civil Twilight 6:44 AM EST 5:54 PM EST
Nautical Twilight 6:12 AM EST 6:25 PM EST
Astronomical Twilight 5:42 AM EST 6:56 PM EST
Moon 4:50 AM EST (1/28) 3:14 PM EST (1/28)
Length of Visible Light 11h 09m
Length of Day
10h 14m
Waning Crescent, 7% of the Moon is Illuminated
Jan 28
Waning Crescent
Jan 30
New
Feb 6
First Quarter
Feb 14
Full
Feb 22
Last Quarter

Hourly Weather History & Observations

Time (EST) Temp. Windchill Dew Point Humidity Pressure Visibility Wind Dir Wind Speed Gust Speed Precip Events Conditions
12:54 AM 30.9 °F 23.5 °F 7.0 °F 37% 30.16 in 10.0 mi NNE 8.1 mph - N/A   Clear
1:54 AM 30.0 °F 20.5 °F 3.9 °F 33% 30.19 in 10.0 mi North 11.5 mph - N/A   Clear
2:54 AM 28.9 °F 20.4 °F 3.9 °F 35% 30.22 in 10.0 mi NNE 9.2 mph - N/A   Scattered Clouds
3:54 AM 28.0 °F 18.6 °F 1.9 °F 33% 30.24 in 10.0 mi North 10.4 mph - N/A   Overcast
4:54 AM 27.0 °F 16.7 °F 1.9 °F 34% 30.27 in 10.0 mi North 11.5 mph 19.6 mph N/A   Overcast
5:54 AM 26.1 °F 15.6 °F 1.9 °F 35% 30.31 in 10.0 mi NNE 11.5 mph - N/A   Overcast
6:54 AM 26.1 °F 17.6 °F 1.9 °F 35% 30.33 in 10.0 mi NNE 8.1 mph - N/A   Overcast
7:54 AM 24.1 °F 13.1 °F -0.9 °F 34% 30.38 in 10.0 mi North 11.5 mph - N/A   Overcast
8:54 AM 23.0 °F 11.7 °F -4.0 °F 31% 30.41 in 10.0 mi North 11.5 mph - N/A   Overcast
9:54 AM 23.0 °F 11.7 °F -8.0 °F 25% 30.40 in 10.0 mi North 11.5 mph - N/A   Overcast
10:54 AM 24.1 °F 13.7 °F -4.0 °F 29% 30.40 in 10.0 mi North 10.4 mph - N/A   Overcast
11:54 AM 24.1 °F 13.7 °F -0.9 °F 34% 30.38 in 10.0 mi North 10.4 mph - N/A   Overcast
12:54 PM 25.0 °F 14.2 °F -0.9 °F 33% 30.36 in 10.0 mi North 11.5 mph - N/A   Overcast
1:54 PM 25.0 °F 15.5 °F -2.0 °F 31% 30.33 in 10.0 mi NNE 9.2 mph - N/A   Mostly Cloudy
2:54 PM 24.1 °F 13.7 °F 1.0 °F 37% 30.33 in 10.0 mi NE 10.4 mph - N/A   Overcast
3:54 PM 23.0 °F 13.9 °F 3.0 °F 42% 30.33 in 10.0 mi NNE 8.1 mph - N/A   Overcast
4:41 PM 21.2 °F 10.9 °F 8.6 °F 58% 30.33 in 1.8 mi NNE 9.2 mph - 0.00 in Snow Light Snow
4:54 PM 21.0 °F 10.6 °F 10.0 °F 63% 30.32 in 1.5 mi NNE 9.2 mph - 0.00 in Snow Light Snow
5:07 PM 19.4 °F 8.6 °F 10.4 °F 68% 30.32 in 2.0 mi NNE 9.2 mph - 0.00 in Snow Light Snow
5:22 PM 19.4 °F 10.4 °F 10.4 °F 68% 30.32 in 1.5 mi NNE 6.9 mph - 0.00 in Snow Light Snow
5:54 PM 19.9 °F 10.1 °F 12.0 °F 71% 30.32 in 1.2 mi NNE 8.1 mph - 0.00 in Snow Light Snow
6:42 PM 19.4 °F 9.5 °F 12.2 °F 74% 30.31 in 2.5 mi North 8.1 mph - 0.02 in Snow Light Snow
6:54 PM 19.0 °F 8.2 °F 12.0 °F 74% 30.31 in 1.8 mi North 9.2 mph - 0.02 in Snow Light Snow
7:54 PM 19.0 °F 10.0 °F 12.0 °F 74% 30.28 in 1.2 mi North 6.9 mph - 0.03 in Snow Light Snow
8:14 PM 19.4 °F 7.9 °F 12.2 °F 74% 30.28 in 0.8 mi North 10.4 mph - 0.01 in Snow Light Snow
8:35 PM 19.4 °F 7.2 °F 12.2 °F 74% 30.28 in 0.8 mi North 11.5 mph - 0.02 in Snow Light Snow
8:54 PM 19.0 °F 10.0 °F 12.0 °F 74% 30.27 in 0.8 mi North 6.9 mph - 0.03 in Snow Light Snow
9:02 PM 19.4 °F 8.6 °F 12.2 °F 74% 30.27 in 1.0 mi North 9.2 mph 17.3 mph 0.00 in Snow Light Snow
9:16 PM 19.4 °F 6.6 °F 12.2 °F 74% 30.26 in 0.8 mi North 12.7 mph - 0.01 in Snow Light Snow
9:23 PM 19.4 °F 7.9 °F 12.2 °F 74% 30.26 in 0.8 mi North 10.4 mph - 0.02 in Snow Light Snow
9:54 PM 19.0 °F 7.5 °F 12.0 °F 74% 30.27 in 0.8 mi North 10.4 mph - 0.04 in Snow Light Snow
10:54 PM 19.0 °F 8.2 °F 12.0 °F 74% 30.24 in 0.8 mi North 9.2 mph - 0.04 in Snow Light Snow
11:44 PM 19.4 °F 8.6 °F 12.2 °F 74% 30.23 in 0.8 mi North 9.2 mph - 0.02 in Snow Light Snow
11:54 PM 19.0 °F 9.0 °F 12.0 °F 74% 30.22 in 0.8 mi North 8.1 mph - 0.03 in Snow Light Snow